TimeEST,TemperatureF,Dew PointF,Humidity,Sea Level PressureIn,VisibilityMPH,Wind Direction,Wind SpeedMPH,Gust SpeedMPH,PrecipitationIn,Events,Conditions,WindDirDegrees,DateUTC
12:15 AM,19.4,17.6,93,30.00,3.0,Calm,Calm,-,N/A,,Clear,0,2012-12-29 05:15:00
12:35 AM,17.6,15.8,93,30.00,0.5,Calm,Calm,-,N/A,,Unknown,0,2012-12-29 05:35:00
12:55 AM,17.6,15.8,93,30.00,7.0,Calm,Calm,-,N/A,,Clear,0,2012-12-29 05:55:00
1:15 AM,17.6,14.0,86,30.00,9.0,Calm,Calm,-,N/A,,Clear,0,2012-12-29 06:15:00
1:35 AM,17.6,12.2,79,30.00,1.5,Calm,Calm,-,N/A,,Clear,0,2012-12-29 06:35:00
1:55 AM,15.8,12.2,86,30.01,1.5,Calm,Calm,-,N/A,,Clear,0,2012-12-29 06:55:00
2:15 AM,15.8,12.2,86,30.00,0.8,Calm,Calm,-,N/A,,Unknown,0,2012-12-29 07:15:00
2:55 AM,15.8,12.2,86,30.00,10.0,Calm,Calm,-,N/A,,Partly Cloudy,0,2012-12-29 07:55:00
3:15 AM,15.8,10.4,79,30.00,10.0,SSW,3.5,-,N/A,,Partly Cloudy,200,2012-12-29 08:15:00
3:35 AM,15.8,12.2,86,30.00,10.0,Calm,Calm,-,N/A,,Partly Cloudy,0,2012-12-29 08:35:00
3:55 AM,15.8,12.2,86,30.00,10.0,Calm,Calm,-,N/A,,Scattered Clouds,0,2012-12-29 08:55:00
4:15 AM,15.8,12.2,86,29.99,10.0,Calm,Calm,-,N/A,,Mostly Cloudy,0,2012-12-29 09:15:00
4:35 AM,15.8,12.2,86,29.99,9.0,Calm,Calm,-,N/A,,Overcast,0,2012-12-29 09:35:00
4:55 AM,15.8,14.0,93,29.98,7.0,Calm,Calm,-,N/A,,Mostly Cloudy,0,2012-12-29 09:55:00
5:15 AM,15.8,12.2,86,29.98,9.0,Calm,Calm,-,N/A,,Partly Cloudy,0,2012-12-29 10:15:00
5:35 AM,17.6,14.0,86,29.97,9.0,Calm,Calm,-,N/A,,Partly Cloudy,0,2012-12-29 10:35:00
6:35 AM,17.6,14.0,86,29.96,8.0,SSW,3.5,-,N/A,,Clear,200,2012-12-29 11:35:00
6:55 AM,17.6,15.8,93,29.96,10.0,SSW,4.6,-,N/A,,Clear,210,2012-12-29 11:55:00
7:35 AM,19.4,15.8,86,29.97,10.0,Calm,Calm,-,N/A,,Clear,0,2012-12-29 12:35:00
7:55 AM,19.4,15.8,86,29.97,10.0,Calm,Calm,-,N/A,,Partly Cloudy,0,2012-12-29 12:55:00
8:35 AM,19.4,17.6,93,29.97,10.0,Calm,Calm,-,N/A,,Mostly Cloudy,0,2012-12-29 13:35:00
8:55 AM,19.4,17.6,93,29.96,10.0,North,3.5,-,N/A,,Mostly Cloudy,350,2012-12-29 13:55:00
9:15 AM,19.4,17.6,93,29.95,10.0,Calm,Calm,-,N/A,,Mostly Cloudy,0,2012-12-29 14:15:00
9:35 AM,21.2,17.6,86,29.94,10.0,Calm,Calm,-,N/A,,Overcast,0,2012-12-29 14:35:00
9:55 AM,21.2,19.4,93,29.92,10.0,North,3.5,-,N/A,,Scattered Clouds,360,2012-12-29 14:55:00
10:15 AM,21.2,19.4,93,29.90,10.0,North,3.5,-,N/A,,Mostly Cloudy,360,2012-12-29 15:15:00
10:35 AM,21.2,19.4,93,29.90,10.0,Calm,Calm,-,N/A,,Mostly Cloudy,0,2012-12-29 15:35:00
10:55 AM,23.0,19.4,86,29.89,10.0,South,3.5,-,N/A,,Mostly Cloudy,180,2012-12-29 15:55:00
11:35 AM,24.8,21.2,86,29.87,10.0,Calm,Calm,-,N/A,,Overcast,0,2012-12-29 16:35:00
11:55 AM,24.8,21.2,86,29.85,10.0,Calm,Calm,-,N/A,,Overcast,0,2012-12-29 16:55:00
12:15 PM,26.6,21.2,80,29.85,10.0,Calm,Calm,-,N/A,,Overcast,0,2012-12-29 17:15:00
12:35 PM,26.6,21.2,80,29.82,10.0,Calm,Calm,-,N/A,,Overcast,0,2012-12-29 17:35:00
12:55 PM,26.6,19.4,74,29.81,10.0,Calm,Calm,-,N/A,,Overcast,0,2012-12-29 17:55:00
1:15 PM,26.6,21.2,80,29.78,0.8,Calm,Calm,-,N/A,,Overcast,0,2012-12-29 18:15:00
1:35 PM,26.6,23.0,86,29.75,2.0,North,3.5,-,N/A,,Overcast,10,2012-12-29 18:35:00
1:55 PM,26.6,23.0,86,29.74,4.0,North,3.5,-,N/A,,Mostly Cloudy,350,2012-12-29 18:55:00
2:15 PM,26.6,23.0,86,29.73,6.0,Calm,Calm,-,N/A,,Mostly Cloudy,0,2012-12-29 19:15:00
2:35 PM,26.6,23.0,86,29.72,7.0,Calm,Calm,-,N/A,,Overcast,0,2012-12-29 19:35:00
3:55 PM,28.4,24.8,86,29.69,3.0,NNE,5.8,-,N/A,,Overcast,20,2012-12-29 20:55:00
4:15 PM,28.4,24.8,86,29.67,1.2,North,6.9,-,N/A,,Overcast,10,2012-12-29 21:15:00
5:15 PM,28.4,24.8,86,29.63,6.0,North,8.1,-,N/A,,Overcast,350,2012-12-29 22:15:00
6:15 PM,26.6,24.8,93,29.57,4.0,Calm,Calm,-,N/A,,Overcast,0,2012-12-29 23:15:00
6:55 PM,26.6,24.8,93,29.57,0.8,NNE,6.9,-,N/A,,Overcast,20,2012-12-29 23:55:00
7:15 PM,26.6,24.8,93,29.56,1.2,NNW,5.8,-,N/A,,Overcast,340,2012-12-30 00:15:00
7:35 PM,26.6,24.8,93,29.53,0.8,North,12.7,-,N/A,,Overcast,360,2012-12-30 00:35:00
7:55 PM,26.6,23.0,86,29.53,1.2,NNE,6.9,-,N/A,,Overcast,20,2012-12-30 00:55:00
8:15 PM,26.6,23.0,86,29.52,1.0,North,5.8,-,N/A,,Overcast,10,2012-12-30 01:15:00
8:35 PM,24.8,23.0,93,29.52,1.2,North,6.9,-,N/A,,Overcast,360,2012-12-30 01:35:00
9:35 PM,-9999,-9999,N/A,29.50,1.2,North,4.6,-,N/A,,Overcast,350,2012-12-30 02:35:00
9:55 PM,24.8,21.2,86,29.51,1.0,North,8.1,-,N/A,,Overcast,360,2012-12-30 02:55:00
10:15 PM,24.8,21.2,86,29.52,1.5,North,5.8,-,N/A,,Overcast,10,2012-12-30 03:15:00
10:35 PM,24.8,21.2,86,29.52,4.0,North,11.5,-,N/A,,Overcast,10,2012-12-30 03:35:00
10:55 PM,24.8,21.2,86,29.52,4.0,North,10.4,-,N/A,,Overcast,360,2012-12-30 03:55:00
11:15 PM,24.8,21.2,86,29.51,4.0,North,12.7,-,0.01,,Overcast,10,2012-12-30 04:15:00
11:35 PM,24.8,21.2,86,29.52,5.0,North,6.9,-,0.01,,Overcast,10,2012-12-30 04:35:00
11:55 PM,24.8,21.2,86,29.51,5.0,North,9.2,-,0.01,,Overcast,10,2012-12-30 04:55:00